Погода в Кендари

Индонезия     3°59′38″S   122°31′33″E
темп.,
°C
ветер,
м/с
пор.,
м/с
влажн.,
%
обл.,
%
осадки,
мм/ч
давл.,
гПа
погр.,
м
2 марта, вт
вт223:00+23юз0194100 1.2 101127
02:00+23зюз1194100 1.2 101028
05:00+23зюз1193100 0.0 100927
08:00+26зюз1184100 0.0 1011153
11:00+33ссв1156100 0.0 10111043
14:00+30св226987 1.3 1008671
17:00+27св258177 0.7 1008404
20:00+25св128979 1.6 101153
3 марта, ср
ср323:00+24с269798 6.7 1012216
02:00+24зсз009599 6.8 101037
05:00+24в019499 0.0 101048
08:00+26с128995 0.1 1012200
11:00+31ссв226371 0.1 10111048
14:00+30всв226545 1.4 1008925
17:00+28св238013 1.9 1008515
20:00+25вюв019144 6.2 101052
4 марта, чт
чт423:00+24ююв1194100 3.3 101138
02:00+23юз1196100 9.9 101035
05:00+23зюз1195100 0.6 101127
08:00+26зсз128898 0.6 1012168
11:00+28ссв228593 3.8 1012448
14:00+29св117885 9.6 1009625
17:00+27ссв129192 7.6 1008154
20:00+24вюв019396 9.2 101138
5 марта, пт
пт523:00+23з0193100 0.1 101159
02:00+23зсз019582 1.3 101066
05:00+22зюз239861 4.6 1010110
08:00+25з139170 4.7 1012179
11:00+32сз125725 0.0 10111170
14:00+28ссв348157 2.1 1008473
17:00+27св138519 4.1 1008347
20:00+24вюв018945 4.6 101046
6 марта, сб
сб623:00+24з119480 2.4 101130
02:00+23з129576 2.8 101035
05:00+23зюз129698 1.0 101041
08:00+26з118695 1.4 1012139
11:00+31ссв225722 0.0 10111040
14:00+30св336145 0.5 1008917
17:00+28св2373100 0.4 1008559
20:00+25ссв0183100 0.6 101159